Regional Weather Roundup
Issued by NWS

Home | Current Version | Previous Version | Text Only | Print | Product List | Glossary On
Versions: 1 2 3 4 5 6 7 8 9 10 11 12 13 14 15 16 17 18 19 20 21 22 23 24 25 26 27 28 29 30 31 32 33 34 35 36 37 38 39 40 41 42 43 44 45 46 47 48 49 50
000
ASHW40 PHFO 150543
RWRHI

WEATHER ROUNDUP FOR HAWAII
NATIONAL WEATHER SERVICE HONOLULU HI
700 PM HST THU DEC 14 2017

THIS IS AN AUTOMATED REPORT THAT HAS NOT BEEN QUALITY CONTROLLED.

NOTE..."FAIR" INDICATES FEW OR NO CLOUDS BELOW 12,000 FEET WITH NO
SIGNIFICANT WEATHER AND/OR OBSTRUCTIONS TO VISIBILITY.

* - THESE SITES REPORT LIMITED FIELDS
# - BUOY DATA PROVIDED BY PACIFIC ISLANDS OCEAN OBSERVING SYSTEM.

HIZ001>004-150600-
KAUAI-NIIHAU-

CITY           SKY/WX    TMP DP  RH WIND       PRES   REMARKS
LIHUE APT      MOCLDY    67  55  65 N29G36    30.09R
PORT ALLEN*      N/A     72 N/A N/A NE23G36     N/A
POIPU*           N/A     70 N/A N/A NE9G23      N/A
PRINCEVILLE*   NOT AVBL
KOKOLE POINT*  NOT AVBL
MOLOAA DAIRY*    N/A     68  54  60 NE3G12      N/A
WAIMEA HTS*      N/A     68  50  52 N3G15       N/A
PUU OPAE*        N/A     59  46  63 NE5G18      N/A
PUU LUA*       NOT AVBL
MAKAHA RIDGE*    N/A     61  50  67 NE10G29     N/A
$$

HIZ005>011-150600-
OAHU-

CITY           SKY/WX    TMP DP  RH WIND       PRES   REMARKS
HONOLULU       MOCLDY    73  52  47 NE15      30.04R
KALAELOA       CLOUDY    71  53  52 NE7       30.06R
KANEOHE MCB    CLOUDY    73  56  54 NE18G29   30.04R
WHEELER FIELD  FAIR      66  52  60 N13G21    30.07R
BELLOWS*         N/A    N/A N/A N/A NE23G33     N/A
KAHUKU*          N/A    N/A N/A N/A NE7G15      N/A
WHEELER*         N/A    N/A N/A N/A N10G18      N/A
WAIANAE HARBOR   N/A    N/A N/A N/A E7G20       N/A
DILLINGHAM*    NOT AVBL
KAHUKU TRN*      N/A     73  54  49 SW13G26     N/A
KAWAILOA*        N/A     63  48  59 NE8G26      N/A
KII*             N/A     72  52  49 NE20G30     N/A
MAKUA RANGE*     N/A     70  48  46 W18G35      N/A
OAHU FOREST NW   N/A     63  52  67 NE17G45     N/A
SCHOFIELD BRK*   N/A     63  48  59 MISG        N/A
SCHOFIELD S*   NOT AVBL
WAIANAE VLY*     N/A     72  55  56 W10G35      N/A
KUAOKALA*        N/A     66  48  52 VRB32G49    N/A
HONOULIUULI*   NOT AVBL
MOKUOLOE IS*   NOT AVBL
PALEHUA*         N/A     57  48  72 N6G22       N/A
WAIAWA PHB*    NOT AVBL
$$

HIZ012>013-150600-
MOLOKAI-

CITY           SKY/WX    TMP DP  RH WIND       PRES   REMARKS
MOLOKAI AIRPT  PTCLDY    68  49  50 N18G32    30.03R
KALAUPAPA      NOT AVBL
MAKAPULAPAI*     N/A     70  54  56 NE21G30     N/A
MOLOKAI 1*       N/A     57  50  77 VRB12G30    N/A
PUU ALII*        N/A     45  45 100 NE3G18      N/A
$$

HIZ016-150600-
KAHOOLAWE-

CITY           SKY/WX    TMP DP  RH WIND       PRES   REMARKS
KAHOOLAWE*     NOT AVBL
HAKIOAWA*        N/A     66  54  65 MISG        N/A
HONOKANAIA*    NOT AVBL
KANELOA*         N/A     68  57  68 N24G48      N/A
KEALIALALO*    NOT AVBL
LUA MAKIKA*    NOT AVBL
$$

HIZ014>015-150600-
LANAI-

CITY           SKY/WX    TMP DP  RH WIND       PRES   REMARKS
LANAI CITY     MOCLDY    64  51  62 NE22G30   30.04R
LANAI 1*         N/A     63  50  63 NE16G30     N/A
$$

HIZ017>028-150600-
MAUI-

CITY           SKY/WX    TMP DP  RH WIND       PRES   REMARKS
KAHULUI        PTCLDY    71  53  52 NE25      30.02R
KAPALUA-W MAUI NOT AVBL
HANA AIRPORT   MOCLDY    72  59  64 N12       30.07R
HANA*            N/A     72 N/A N/A N12G18      N/A
HALEAKALA SUMM   N/A     37 -11  12 N48         N/A  WCI  22
MAALAEA BAY*     N/A     70 N/A N/A NE18G29     N/A
HALEAKALA*     NOT AVBL
KAUPO GAP*     NOT AVBL
KULA 1*          N/A     52  -7   8 NE8G18      N/A
$$

HIZ023>026-150600-
BIG ISLAND OF HAWAII COAST AND LOWER SLOPES-

CITY           SKY/WX    TMP DP  RH WIND       PRES   REMARKS
KAILUA KONA    PTCLDY    71  54  54 NE24G37   29.94R
HILO           CLOUDY    69  61  75 N16G23    29.99R
HONOKAA*         N/A     61 N/A N/A VRB1        N/A
KAWAIHAE MWT*    N/A     72 N/A N/A N9G20       N/A
KAWAIHAE*        N/A     72 N/A N/A N8        29.96S
SOUTH POINT*     N/A     66 N/A N/A N8          N/A
UPOLU AIRPORT* NOT AVBL
KAMUELA*       CLOUDY    57  55  94 NE18      30.07R
HAKALAU*         N/A     45  43  93 N10         N/A
KALOKO-HONOKO*   N/A     72  54  53 N17G26    29.91
PALI 2*          N/A     57  52  82 S20G33      N/A
KEALAKOMO*       N/A     70  57  64 N35G54      N/A
KAUPULEHU*       N/A     64  54  68 NE10G21     N/A
KAPAPALA*        N/A     61  55  80 N3          N/A
LOWER KAHUKU*    N/A     57  55  94 N1          N/A
PUHE CS*         N/A     72  54  53 NW5G15      N/A
PUHO CS*         N/A     73  62  67 E2          N/A
PTA KEAMUKU*     N/A     54  52  94 NE16G24     N/A
WAIKOLOA*        N/A     64  55  72 NE15G29     N/A
$$

HIZ027>028-150600-
BIG ISLAND OF HAWAII INTERIOR AND SUMMMITS-

CITY           SKY/WX    TMP DP  RH WIND       PRES   REMARKS
BRADSHAW FIELD CLEAR     46  38  76 CALM      30.19R
MK VISITOR CEN   N/A     48 -20   5 N18G32      N/A
MAUNA KEA*       N/A     23 -20  14 S22         N/A  WCI   8
MAUNA LOA*       N/A     37  -4  17 MISG        N/A
MAUNA LOA 1*   NOT AVBL
PTA KIPUKA*      N/A     64  59  82 N3G15       N/A
PTA RANGE 17*    N/A     55  48  76 NW3G14      N/A
PTA WEST*        N/A     54  39  58 NE20G35     N/A
NENE CABIN*      N/A     46  46 100 SE2         N/A
AHUMOA*          N/A     45  45 100 NE12G23     N/A
PTA PORTABLE*  NOT AVBL
PUU MALI*        N/A     45 N/A N/A E6G12       N/A
$$

HIC003-150600-
NORTHWEST ISLANDS-

CITY           SKY/WX    TMP DP  RH WIND       PRES   REMARKS
MIDWAY ISLAND  CLEAR     73  66  78 S9        30.13R
MIDWAY NOS*      N/A     73 N/A N/A MISG      30.11R
FRENCH FRIGATE NOT AVBL
$$

PHZ110>124-180-150600-
BUOY REPORTS

STATION/POSITION TIME  TEMP    WIND        PRES    WAVE   SWELL
                       AIR SEA DIR/SP/G            HT/PER HT/DIR
                 (UTC) (F)     (DEG/KT/KT) (MB)    (FT/S) (FT/D)
BUOY 51001       0520   71 75   60/ 17/ 21 1021.6
BUOY 51101       0450   71 75   50/ 21/ 25 1021.3F  10/14   8/310
BUOY 51100       NOT AVBL
BUOY 51002       0530   76 78   30/ 17/ 23 1013.5R
BUOY 51003       0450   74 78   40/ 19/ 25 1015.8R  13/15  10/340
BUOY 51004       0530   75 78   20/ 19/ 23 1012.9R
WAIMEA BAY#      0502      75                N/A    12/14   8/320
MOKAPU POINT#    0504      76                N/A    10/14   5/350
LANAI#           NOT AVBL
BARBERS PT 2#    NOT AVBL
PAUWELA#         0530      77                N/A    12/15   8/330
HILO#            0527      77                N/A    13/15   8/340
KANEOHE BAY#     NOT AVBL
KANEOHE BAY 2#   NOT AVBL
HANALEI#         0522      76                N/A    12/13   8/320
KAHULUI HARBOR   0518   72 75   30/ 22/ 28 1016.7
HONOLULU HARBOR  0518   71 77   50/  8/ 13 1018.2
PEARL HARBOR#    0500      77                N/A     2/ 8
KILO NALU        NOT AVBL
HILO HARBOR      0518   69 73  340/ 15/ 20 1015.3
MOKUOLOE         0436   71 74   40/ 18/ 21 1017.8R
NAWILIWILI       0506   71 78   20/ 16/ 20 1018.8
WHOTS BUOY       NOT AVBL
BUOY 51028       NOT AVBL
$$

......................KEY........................................
  SKY/WX - SKY CONDITIONS/PRESENT WEATHER
  TMP    - TEMPERATURE IN FAHRENHEIT
  DWPT   - DEWPOINT IN FAHRENHEIT
  RH     - RELATIVE HUMIDITY IN PERCENT
  WIND   - DIRECTION AND SPEED /MPH FOR ISLANDS...KTS FOR BUOYS/
  PRES   - MEAN SEA LEVEL PRESSURE IN INCHES OF HG
  VSB    - VISIBILITY IN MILES
  HX     - HEAT INDEX
  WCI    - WIND CHILL INDEX
  VRB    - VARIABLE WIND DIRECTION
  N/A    - NOT AVAILABLE




USA.gov is the U.S. government's official web portal to all federal, state and local government web resources and services.